loading
|

DELTA 1 DEB, 2706

Orbit data source: Space-Track

DELTA 1 DEB, 2706 is space debris in LEO originally from a launch on Thu, 26 Jan 1967 UTC launched from the Air Force Western Test Range (AFWTR). Debris objects in space refer to the collection of defunct objects orbiting the Earth. Examples of debris include non-operational satellites, rocket bodies, and fragments generated from explosions, collisions, or faulty payload assembly.

Loading next visibility...
Loading greatness...
DELTA 1 DEB details
Identifier
2706, 1967-006C
Orbit
LEO
Last TLE update10 hours ago
Origin
Flag of USGSFC (US)
ManufacturerUnknown
MissionSpacecraft
Bus & MotorUnknown bus, Unknown motor
MassUnknown
Launch date (UTC)
1967-01-26 (58 years ago)
Launch vehicleUnknown
Launch site
Air Force Western Test Range (AFWTR)
Object type
Payload
Rocket body
Debris
Shape & HBRUnknown
Radar Cross SectionSmall (<0.1 m²)

Expand to show TLE details & history

TLE from 10 hours ago
0 DELTA 1 DEB
1  2706U 67006C   24278.59926529 -.00000012  00000-0  21002-3 0  9996
2  2706 102.2247 281.4444 0035335 165.7945 315.6611 12.60904025654780
Epoch: 2024-10-04T14:22Z
Definitive object data (Epoch: 2024-10-04T14:22:56.521Z)
Latitude56.83787°
Longitude-108.79431°
Altitude1,408.855 km
Speed7.17 km/s
True Right ascension08h 02m 50s
True Declination56° 41' 36"
Sunlit
Object was in daylight at TLE epoch
Predictive object data (real-time)
Latitude27.51614°
Longitude-121.18973°
Altitude1,395.451 km
Speed7.177 km/s
Apparent Right ascension06h 42m 54s
Apparent Declination-2° 26' 35"
Sunlit
Object is in daylight
Predictive observer data (real-time)
Local Sidereal Time18:00:03
Azimuth342.725° N
Elevation-51.287°
Doppler factor1
Orbital elements
Apogee1,444.32 km
Perigee1,389.233 km
Semi-major axis7,794.913 km
Eccentricity0.0035335
Inclination102.2247°
RAAN281.4444°
Arg. of periapsis165.7945°
True anomaly315.37721°
Mean anomaly315.6611°
Eccentric anomaly315.51925°
Mean motion3.15374 °/min
BSTAR0.00021002
Period114.15 mins
No data available
No data available
Other satellites on launch #6 in the year 1967 (1967-01-26 UTC)

DELTA 1 DEB Visibility forecast

Observer location: 39.9160978°, -105.1181434

DELTA 1 DEB is not visible in the next 10 days
Span
Click to sort rows by Start time (UTC) header in descending order
Start Az.
Max El. time (UTC)
Max El. Az.
Max El.
End time (UTC)
End Az.